Regional Weather Roundup
Issued by NWS

Home | Current Version | Previous Version | Text Only | Print | Product List | Glossary On
Versions: 1 2 3 4 5 6 7 8 9 10 11 12 13 14 15 16 17 18 19 20 21 22 23 24 25 26 27 28 29 30 31 32 33 34 35 36 37 38 39 40 41 42 43 44 45 46 47 48 49 50
000
ASUS43 KTOP 291659
RWRKS

WEATHER ROUNDUP FOR KANSAS
NATIONAL WEATHER SERVICE GOODLAND KS
1200 PM CDT SAT AUG 29 2015

NOTE:  "FAIR" INDICATES FEW OR NO CLOUDS BELOW 12,000 FEET WITH NO
SIGNIFICANT WEATHER AND/OR OBSTRUCTIONS TO VISIBILITY.

KSZ001>006-013>018-027>032-041>047-291800-
NORTHWEST KANSAS

CITY           SKY/WX    TMP DP  RH WIND       PRES   REMARKS
GOODLAND       SUNNY     82  52  35 SW6       30.21S
HAYS           SUNNY     79  57  47 N14       30.11F
HILL CITY      SUNNY     81  61  50 N6        30.13F
RUSSELL        SUNNY     76  62  62 N14       30.10S
$$

KSZ061>065-074>080-084>089-291800-
SOUTHWEST KANSAS

CITY           SKY/WX    TMP DP  RH WIND       PRES   REMARKS
DODGE CITY     SUNNY     77  60  55 N10       30.15F
ELKHART          N/A     80  62  54 N6          N/A
GARDEN CITY    SUNNY     78  62  57 NW7       30.17S
GREAT BEND     SUNNY     77  61  57 N14       30.10S
LIBERAL        SUNNY     81  64  57 N10       30.18S
PRATT          MOSUNNY   77  59  53 N14       30.11F
$$

KSZ066>073-081>083-090>101-291800-
SOUTHEAST KANSAS

CITY           SKY/WX    TMP DP  RH WIND       PRES   REMARKS
CHANUTE        MOSUNNY   78  65  63 N5        30.03S
COFFEYVILLE    PTSUNNY   79  69  71 N7        30.02R
HUTCHINSON     CLOUDY    73  61  65 N7        30.09R
NEWTON         CLOUDY    66  57  72 N10       30.10S
PARSONS        PTSUNNY   78  68  71 N6        30.04R
WICHITA INTL   CLOUDY    71  60  68 N10       30.07R
WICHITA JABRA  CLOUDY    68  62  81 N10       30.07S
$$

KSZ007>012-019>026-033>040-048>060-102>105-291800-
NORTHEAST KANSAS

CITY           SKY/WX    TMP DP  RH WIND       PRES   REMARKS
CONCORDIA      CLOUDY    63  60  90 NE8       30.11R
EMPORIA        CLOUDY    68  61  78 N6        30.06R
LAWRENCE       CLOUDY    71  64  78 N5        30.04R
MANHATTAN      CLOUDY    68  63  84 N6        30.07R
OLATHE IND     CLOUDY    71  66  84 VRB3      30.04R
OLATHE EXE     CLOUDY    71  66  84 N3        30.03R
SALINA         CLOUDY    69  61  75 N12       30.10R
TOPEKA BILLARD CLOUDY    69  65  86 N8        30.05S
TOPEKA FORBES  CLOUDY    69  64  84 N6        30.05S
$$


USA.gov is the U.S. government's official web portal to all federal, state and local government web resources and services.